Starlink 6188

operational
NORAD ID: 56376 Int'l Des: 2023-061 Owner: SPXS Country: US Constellation: starlink
LEOCIRCULAR

Über Starlink 6188

Beschreibung wird geladen...

Live-Position

3D-Globus wird geladen...

Nächste Überflüge

Höhenverlauf

Altitude vs Time

uPlot chart will show altitude changes over time

Zweizeiliger Elementsatz

1 56376U 23061C 25305.63632802 .00000324 00000-0 39078-4 0 9994
2 56376 43.0073 173.1430 0002051 266.0876 93.9732 15.02540463137495
Epoch: 1. Nov. 2025 • Age: 18 hours

Aktueller Status

Höhe 563.7 km
Geschwindigkeit 7.58 km/s
Subsatellitenpunkt 43.15°N, 77.35°E
Startdatum 4. Mai 2023
Alter 2.4 years
Typ internet

Technische Details

Klassifizierung Payload
Masse 305.00 kg
Trockenmasse 290.00 kg
Gesamtmasse 305.00 kg
Länge 0.20 m
Durchmesser 2.80 m
Spannweite 9.00 m
Form Box + pan
Hersteller SPXS
Bus-Typ Starlink
Phasenstatus In Orbit
Besitzer/Staat SPXS/US

Große Konstellationen

Loading constellations...